Погода в Нижнегорском

Россия / Республика Крым     45°26′59″N   34°44′04″E
темп.,
°C
ветер,
м/с
пор.,
м/с
влажн.,
%
обл.,
%
осадки,
мм/ч
давл.,
гПа
погр.,
м
20 апреля, вт
вт2000:00+10в3689100 0.0 1011227
03:00+9вюв3798100 1.6 1008251
06:00+9вюв4798100 4.2 1006368
09:00+10юв3898100 6.2 1004472
12:00+12з61085100 1.0 1004937
15:00+9зсз71092100 1.5 1006715
18:00+10з61187100 0.3 1009595
21:00+9зюз51191100 0.3 1012343
21 апреля, ср
ср2100:00+8юз5119594 0.0 1013314
03:00+7зюз499586 0.0 1014257
06:00+8зюз3893100 0.0 1014275
09:00+11зюз4781100 0.1 1016421
12:00+16зюз455238 0.8 10161744
15:00+16зюз665066 2.1 10161779
18:00+14зюз67624 0.2 1017863
21:00+9зюз49850 0.2 1019203
22 апреля, чт
чт2200:00+8зюз49880 0.0 1020188
03:00+7юз36905 0.0 1020117
06:00+6зюз33892 0.0 102139
09:00+13зюз35650 0.0 1022524
12:00+17зюз33478 0.0 10221744
15:00+17ююз2444100 0.0 10211691
18:00+16з24558 0.1 1022619
21:00+10з46780 0.1 102390
23 апреля, пт
пт2300:00+8зюз34800 0.0 102349
03:00+8зюз22790 0.0 102313
06:00+7ююв11805 0.0 102310
09:00+13вюв34640 0.0 1023426
12:00+18вюв44440 0.0 10221502
15:00+20ююв553550 0.0 10202093
18:00+16юв575097 0.0 1020428
21:00+10ююв487125 0.0 1020127
24 апреля, сб
сб2400:00+9ююв3371100 0.0 101943
03:00+9ю227199 0.0 101723
06:00+10ююз1169100 0.0 101712
09:00+13зсз1165100 0.0 1017149
12:00+17ююз2351100 0.0 10171033
15:00+17вюв0253100 0.1 10161247
18:00+13с4770100 0.1 1017317
21:00+11с4781100 0.1 1018320